Date String (YYYY-MM-DD hh:mm:ss) UTC,Instrument flags,Ambient pressure (hPa),Sample flow (lpm),Bypass flow (lpm),Sample temperature (°C),Ambient temperature (°C),ASC tube jacket temperature (°C),LED temperature (°C),Box temperature (°C),Sample RH (%),Span deviation,Mass concentration (μg/m³),Mass concentration (μg/m³),Mass concentration (μg/m³)
DateTimeUTC,F1_M11,P_M11,Q1_M11,Q2_M11,T1_M11,T2_M11,T3_M11,T4_M11,T5_M11,U1_M11,ZSPAN_M11,X0_M11,X2_M11,X1_M11
2022-09-10 09:00:00,,0830.7,5.00,0.00,29.1,27.5,00.0,37.8,30.9,26.0,0000.0,0001.40,0001.21,0001.17
2022-09-10 09:01:00,,0830.7,5.00,0.00,29.1,27.5,00.0,37.8,30.9,26.0,0000.0,0001.42,0001.23,0001.19
2022-09-10 09:02:00,,0830.7,5.00,0.00,29.1,27.4,00.0,37.8,30.9,26.0,0000.0,0001.44,0001.24,0001.19
2022-09-10 09:03:00,,0830.7,5.00,0.00,29.1,27.4,00.0,37.8,30.9,26.0,0000.0,0001.46,0001.26,0001.20
2022-09-10 09:04:00,,0830.7,5.00,0.00,29.1,27.4,00.0,37.8,30.9,26.0,0000.0,0001.46,0001.24,0001.18
2022-09-10 09:05:00,,0830.7,5.00,0.00,29.1,27.4,00.0,37.8,30.9,26.1,0000.0,0001.43,0001.22,0001.17
2022-09-10 09:06:00,,0830.7,5.00,0.00,29.1,27.4,00.0,37.8,30.9,26.0,0000.0,0001.44,0001.22,0001.15
2022-09-10 09:07:00,,0830.8,4.99,0.00,29.0,27.4,00.0,37.8,30.9,26.0,0000.0,0001.44,0001.20,0001.14
2022-09-10 09:08:00,,0830.7,5.00,0.00,29.0,27.4,00.0,37.8,30.8,26.0,0000.0,0001.39,0001.17,0001.11
2022-09-10 09:09:00,,0830.7,5.00,0.00,29.0,27.4,00.0,37.8,30.9,26.0,0000.0,0001.37,0001.14,0001.08
2022-09-10 09:10:00,,0830.8,5.00,0.00,29.0,27.4,00.0,37.8,30.8,26.1,0000.0,0001.34,0001.12,0001.06
2022-09-10 09:11:00,,0830.8,4.98,0.00,29.0,27.4,00.0,37.8,30.8,27.1,0000.0,0001.29,0001.10,0001.05
2022-09-10 09:12:00,,0830.8,5.00,0.00,29.0,27.4,00.0,37.8,30.8,26.7,0000.0,0001.27,0001.08,0001.03
2022-09-10 09:13:00,,0830.7,5.01,0.00,29.0,27.4,00.0,37.8,30.8,26.2,0000.0,0001.24,0001.06,0001.02
2022-09-10 09:14:00,,0830.8,5.00,0.00,29.0,27.3,00.0,37.8,30.8,26.1,0000.0,0001.22,0001.05,0001.03
2022-09-10 09:15:00,,0830.8,5.01,0.00,29.0,27.4,00.0,37.8,30.8,26.1,0000.0,0001.25,0001.08,0001.04
2022-09-10 09:16:00,,0830.7,4.99,0.00,29.0,27.4,00.0,37.8,30.8,26.1,0000.0,0001.26,0001.09,0001.06
2022-09-10 09:17:00,,0830.7,5.00,0.00,29.0,27.4,00.0,37.8,30.8,26.1,0000.0,0001.25,0001.11,0001.09
2022-09-10 09:18:00,,0830.7,5.00,0.00,29.0,27.4,00.0,37.8,30.8,26.1,0000.0,0001.25,0001.12,0001.10
2022-09-10 09:19:00,,0830.8,5.00,0.00,29.0,27.4,00.0,37.8,30.8,26.1,0000.0,0001.30,0001.17,0001.15
2022-09-10 09:20:00,,0830.8,4.98,0.00,29.0,27.4,00.0,37.8,30.8,26.1,0000.0,0001.33,0001.21,0001.19
2022-09-10 09:21:00,,0830.9,5.00,0.00,29.0,27.4,00.0,37.8,30.8,26.1,0000.0,0001.41,0001.27,0001.24
2022-09-10 09:22:00,,0830.9,5.00,0.00,29.0,27.4,00.0,37.8,30.8,26.1,0000.0,0001.51,0001.33,0001.28
2022-09-10 09:23:00,,0830.9,5.00,0.00,29.0,27.4,00.0,37.8,30.8,26.1,0000.0,0001.56,0001.39,0001.34
2022-09-10 09:24:00,,0830.9,5.00,0.00,29.0,27.4,00.0,37.7,30.8,26.1,0000.0,0001.62,0001.44,0001.38
2022-09-10 09:25:00,,0830.9,5.00,0.00,29.0,27.4,00.0,37.7,30.8,26.1,0000.0,0001.68,0001.48,0001.42
2022-09-10 09:26:00,,0830.9,5.00,0.00,29.0,27.4,00.0,37.7,30.8,26.1,0000.0,0001.71,0001.53,0001.48
2022-09-10 09:27:00,,0830.9,5.00,0.00,29.0,27.4,00.0,37.7,30.8,26.0,0000.0,0001.76,0001.59,0001.54
2022-09-10 09:28:00,,0830.9,5.00,0.00,29.0,27.4,00.0,37.7,30.8,26.1,0000.0,0001.81,0001.65,0001.60
2022-09-10 09:29:00,,0831.0,5.00,0.00,29.0,27.4,00.0,37.7,30.8,26.1,0000.0,0001.97,0001.76,0001.70
2022-09-10 09:30:00,,0830.9,4.98,0.00,29.0,27.4,00.0,37.7,30.8,26.1,0000.0,0002.11,0001.85,0001.79
2022-09-10 09:31:00,,0830.9,5.01,0.00,29.0,27.4,00.0,37.7,30.8,26.1,0000.0,0002.20,0001.94,0001.88
2022-09-10 09:32:00,,0830.9,5.00,0.00,29.0,27.4,00.0,37.8,30.8,26.1,0000.0,0002.30,0002.04,0001.98
2022-09-10 09:33:00,,0830.9,5.00,0.00,29.0,27.3,00.0,37.8,30.8,26.1,0000.0,0002.40,0002.13,0002.07
2022-09-10 09:34:00,,0830.9,5.00,0.00,29.0,27.3,00.0,37.7,30.8,26.1,0000.0,0002.53,0002.23,0002.16
2022-09-10 09:35:00,,0830.9,5.00,0.00,29.0,27.3,00.0,37.7,30.8,26.1,0000.0,0002.66,0002.35,0002.27
2022-09-10 09:36:00,,0830.9,5.00,0.00,29.0,27.3,00.0,37.7,30.8,26.1,0000.0,0002.78,0002.47,0002.39
2022-09-10 09:37:00,,0830.9,4.99,0.00,28.9,27.3,00.0,37.7,30.8,26.2,0000.0,0002.88,0002.57,0002.49
2022-09-10 09:38:00,,0830.9,4.99,0.00,28.9,27.3,00.0,37.7,30.8,26.2,0000.0,0003.01,0002.68,0002.60
2022-09-10 09:39:00,,0830.9,5.00,0.00,28.9,27.3,00.0,37.7,30.8,26.2,0000.0,0003.12,0002.79,0002.70
2022-09-10 09:40:00,,0830.9,5.00,0.00,28.9,27.2,00.0,37.7,30.8,26.1,0000.0,0003.17,0002.89,0002.80
2022-09-10 09:41:00,,0830.9,5.00,0.00,28.9,27.2,00.0,37.7,30.7,26.1,0000.0,0003.17,0002.95,0002.85
2022-09-10 09:42:00,,0830.9,5.00,0.00,28.9,27.2,00.0,37.7,30.7,26.1,0000.0,0003.25,0003.01,0002.90
2022-09-10 09:43:00,,0830.9,5.00,0.00,28.9,27.2,00.0,37.7,30.8,26.2,0000.0,0003.27,0003.06,0002.97
2022-09-10 09:44:00,,0831.0,5.00,0.00,28.9,27.2,00.0,37.7,30.7,26.3,0000.0,0003.28,0003.13,0003.06
2022-09-10 09:45:00,,0831.0,5.00,0.00,28.9,27.2,00.0,37.7,30.7,26.2,0000.0,0003.41,0003.20,0003.16
2022-09-10 09:46:00,,0831.0,4.99,0.00,28.9,27.3,00.0,37.7,30.7,26.2,0000.0,0003.54,0003.28,0003.24
2022-09-10 09:47:00,,0831.1,5.00,0.00,28.9,27.3,00.0,37.7,30.7,26.1,0000.0,0003.77,0003.39,0003.34
2022-09-10 09:48:00,,0831.0,5.00,0.00,28.9,27.2,00.0,37.7,30.7,26.1,0000.0,0004.11,0003.54,0003.47
2022-09-10 09:49:00,,0831.0,5.00,0.00,28.9,27.2,00.0,37.7,30.7,26.2,0000.0,0004.42,0003.68,0003.60
2022-09-10 09:50:00,,0831.0,5.00,0.00,28.9,27.2,00.0,37.7,30.7,27.2,0000.0,0004.77,0003.83,0003.71
2022-09-10 09:51:00,,0831.0,5.00,0.00,28.9,27.2,00.0,37.7,30.7,26.8,0000.0,0005.09,0003.98,0003.83
2022-09-10 09:52:00,,0831.0,5.00,0.00,28.9,27.2,00.0,37.7,30.7,26.3,0000.0,0005.44,0004.15,0004.00
2022-09-10 09:53:00,,0831.0,5.00,0.00,28.9,27.2,00.0,37.6,30.7,26.2,0000.0,0005.71,0004.31,0004.15
2022-09-10 09:54:00,,0831.0,5.00,0.00,28.8,27.2,00.0,37.6,30.7,26.1,0000.0,0006.07,0004.48,0004.30
2022-09-10 09:55:00,,0831.0,5.00,0.00,28.9,27.2,00.0,37.6,30.7,26.1,0000.0,0006.38,0004.63,0004.43
2022-09-10 09:56:00,,0831.0,4.98,0.00,28.8,27.2,00.0,37.6,30.7,26.1,0000.0,0006.58,0004.75,0004.54
2022-09-10 09:57:00,,0831.1,5.00,0.00,28.8,27.2,00.0,37.6,30.7,26.1,0000.0,0006.88,0004.86,0004.63
2022-09-10 09:58:00,,0831.0,5.01,0.00,28.8,27.2,00.0,37.6,30.7,26.0,0000.0,0007.01,0004.94,0004.70
2022-09-10 09:59:00,,0831.0,5.01,0.00,28.8,27.2,00.0,37.6,30.7,26.0,0000.0,0007.02,0004.97,0004.73
